This demonstration page uses our WeatherBlox Daily Observations layout. Learn more.

Left ArrowRight Arrow

39.01783, -85.05884

Hourly Observations for August 23, 2016

Temp ( °F °C ) Dew Point ( °F °C ) Humidity (%) Winds ( mph kmh ) Pressure ( in mb ) Visibility ( mi km ) Precip ( " mm )
12:52 am 00:52 Clear 62 16.7 58 14.4 86 86 N N/A 30.22 1023 10 16 N/A
1:52 am 01:52 Clear 63 17.2 58 14.4 84 84 N N/A 30.23 1024 10 16 N/A
2:52 am 02:52 Clear 62 16.7 59 15 90 90 N N/A 30.23 1024 10 16 N/A
3:52 am 03:52 Clear 62 16.7 59 15 90 90 N N/A 30.23 1024 10 16 N/A
4:52 am 04:52 Clear 61 16.1 58 14.4 90 90 N N/A 30.23 1024 10 16 N/A
5:52 am 05:52 Clear 62 16.7 58 14.4 86 86 N N/A 30.24 1024 10 16 N/A
6:52 am 06:52 Mostly Clear 62 16.7 58 14.4 86 86 N N/A 30.25 1024 10 16 N/A
7:52 am 07:52 Mostly Sunny 63 17.2 60 15.6 90 90 N N/A 30.26 1025 10 16 N/A
8:52 am 08:52 Mostly Sunny 68 20 60 15.6 76 76 ESE 3 6 30.27 1025 10 16 N/A
9:52 am 09:52 Mostly Sunny 73 22.8 61 16.1 66 66 SSE 5 7 30.27 1025 10 16 N/A
10:52 am 10:52 Mostly Sunny 75 23.9 60 15.6 60 60 S 10 17 30.29 1026 10 16 N/A
11:52 am 11:52 Mostly Cloudy 77 25 59 15 54 54 SSE 5 7 30.27 1025 10 16 N/A
12:52 pm 12:52 Partly Cloudy 78 25.6 59 15 52 52 S 7 11 30.27 1025 10 16 N/A
1:52 pm 13:52 Mostly Cloudy 80 26.7 59 15 49 49 VRB 5 7 30.25 1024 10 16 N/A
2:52 pm 14:52 Mostly Cloudy 81 27.2 59 15 47 47 VRB 5 7 30.23 1024 10 16 N/A
3:52 pm 15:52 Mostly Cloudy 82 27.8 60 15.6 47 47 ESE 7 11 30.21 1023 10 16 N/A
4:52 pm 16:52 Mostly Cloudy 81 27.2 60 15.6 49 49 S 7 11 30.20 1023 10 16 N/A
5:52 pm 17:52 Mostly Cloudy 81 27.2 61 16.1 51 51 SSW 8 13 30.19 1023 10 16 N/A
6:52 pm 18:52 Mostly Cloudy 79 26.1 62 16.7 56 56 S 3 6 30.19 1023 10 16 N/A
7:52 pm 19:52 Mostly Cloudy 76 24.4 62 16.7 62 62 SSW 3 6 30.20 1023 10 16 N/A
8:52 pm 20:52 Mostly Cloudy 73 22.8 62 16.7 69 69 N N/A 30.20 1023 10 16 N/A
9:52 pm 21:52 Mostly Cloudy 70 21.1 62 16.7 76 76 N N/A 30.20 1023 10 16 N/A
10:52 pm 22:52 Mostly Cloudy 71 21.7 61 16.1 71 71 N N/A 30.19 1022 10 16 N/A
11:52 pm 23:52 Partly Cloudy 69 20.6 61 16.1 76 76 SSE 3 6 30.18 1022 10 16 N/A

Powered by AerisWeather